Regional Weather Roundup
Issued by NWS

Home | Current Version | Previous Version | Text Only | Print | Product List | Glossary On
Versions: 1 2 3 4 5 6 7 8 9 10 11 12 13 14 15 16 17 18 19 20 21 22 23 24 25 26 27 28 29 30 31 32 33 34 35 36 37 38 39 40 41 42 43 44 45 46 47 48 49 50
000
ASUS45 KREV 080710
RWRNV
NEVADA REGIONAL WEATHER ROUNDUP
NATIONAL WEATHER SERVICE RENO NV
1100 PM PST WED DEC 07 2016

NOTE: "FAIR" INDICATES FEW OR NO CLOUDS BELOW 12,000 FEET WITH NO
SIGNIFICANT WEATHER AND/OR OBSTRUCTIONS TO VISIBILITY.

NVZ001-003-004-080800-
WESTERN NEVADA

CITY           SKY/WX    TMP DP  RH WIND       PRES   REMARKS
RENO           FLURRIES  28  23  81 E5        30.10S
CARSON CITY    LGT SNOW  27  23  86 E15       30.10F
MINDEN         MOCLDY    25  25 100 NW7       30.09F
PYRAMID LAKE     N/A     30 N/A N/A E14         N/A
FALLON         LGT SNOW  28  25  88 N6        30.14F FOG
LOVELOCK       LGT SNOW  24  22  91 NE9       30.16F VSB 1
HAWTHORNE        N/A     34  19  55 CALM      30.10F
$$

NVZ002-CAZ072-073-080800-
NORTHERN AND CENTRAL SIERRA

CITY           SKY/WX    TMP DP  RH WIND       PRES   REMARKS
S. LAKE TAHOE  LGT RAIN  36  32  85 S10       30.01S
TRUCKEE        LGT SNOW  27  23  86 CALM      30.04R
SQUAW VLY 8000   N/A     30  30 100 S12         N/A
SUSANVILLE     LGT SNOW N/A N/A N/A CALM      30.11F
MAMMOTH LAKES  MOCLDY    27  10  49 CALM      30.13S
BRIDGEPORT     FLURRIES  26  22  84 NE5       30.00F
$$

NVZ030-031-036-080800-
NORTHERN NEVADA

CITY           SKY/WX    TMP DP  RH WIND       PRES   REMARKS
ELKO           CLOUDY    21   6  52 E6        30.19R
WINNEMUCCA     CLOUDY    25  15  66 NE7       30.18R
WENDOVER       MOCLDY    19   7  58 CALM      30.31F
$$

NVZ035-037-080800-
CENTRAL NEVADA

CITY           SKY/WX    TMP DP  RH WIND       PRES   REMARKS
ELY            CLOUDY    13   4  67 CALM      30.18F
EUREKA           N/A     19   9  65 CALM      30.16R
$$

NVZ013-014-080800-
SOUTH CENTRAL NEVADA

CITY           SKY/WX    TMP DP  RH WIND       PRES   REMARKS
TONOPAH        CLOUDY    27  10  49 CALM      30.17S
$$

NVZ017-020-022-080800-
SOUTHERN NEVADA

CITY           SKY/WX    TMP DP  RH WIND       PRES   REMARKS
LAS VEGAS      MOCLDY    40   8  26 S3        30.21S
N. LAS VEGAS   CLEAR     38  10  31 CALM      30.21S
NELLIS AFB     CLEAR     39   5  24 W3        30.22S
HENDERSON      CLEAR     34   9  35 SE3       30.22S
MERCURY        CLEAR     35   5  28 VRB3      30.19S
$$



USA.gov is the U.S. government's official web portal to all federal, state and local government web resources and services.